THORAD AGENA D DEB

Satellite information

Favourite Embed

Satellite Type and Status

DEBRISIN ORBIT

Key statistics

Satellite THORAD AGENA D DEB at a glance.

Uptime

20369

Days in orbit

Revolutions

≈ 14.4

Per day

Orbit

LEO

Low Earth Orbit

Inclination

70.1

Latest

Satellite identification and parameters

Extended collection of information and parameters for THORAD AGENA D DEB.

Object identification

Identified? True

Debris? True

Object name: THORAD AGENA D DEB

International designator: 1969-082HY

Object number (NORAD): 5519

Object ID (CCSDS): 5519

Country: UNITED STATES OF AMERICA (US)

Current information (Y/N): Y

RCS size: SMALL

Orbital parameters

Period: 99.79 minutes

Inclination: 70.0544 deg

SMA: 7126.642 km

Apoapsis: 782.368 km

Periapsis: 714.646 km

RAAN: 51.7639 deg

Eccentricy: 0.0047513

Argument of periapsis: 345.6183 deg

Mean anomaly: 14.3592 deg

Mean motion: 14.43029982 rev/day

Mean motion (dot): 0.00000718 rev/day2

B* drag term: 0.00022898 1/REarth

Two-line elements (TLE)

Creation date: July 6, 2025, 6:05 p.m.

Reference frame: TEME

Reference center: EARTH

Epoch: July 6, 2025, 3:04 p.m. UTC

TLE line 0: 0 THORAD AGENA D DEB

TLE line 1: 1 05519U 69082HY 25187.62823134 .00000718 00000-0 22898-3 0 9995

TLE line 2: 2 05519 70.0544 51.7639 0047513 345.6183 14.3592 14.43029982901223

Live tracking on map

Real-time ground track for satellite THORAD AGENA D DEB.

In-orbit conjunctions

A list of the most updated potential collisions computed for object THORAD AGENA D DEB.

Target Orbit TCA Probability of collision Miss distance Type
ITAMSAT SSO 2024-11-20 02:31:31 0.0001000628 663.0 (m) PAYLOAD
FENGYUN 1C DEB SSO 2024-06-07 01:44:54 0.0001115613 240.0 (m) DEBRIS

Associated space launch

Poppy was the follow-on ELINT system, which succeeded the Grab ELINT satellite system.

THORAD AGENA D DEB was lifted into orbit during the mission ‘Thorad SLV-2G Agena D | Poppy 8A,B,C,D’, on board a Thorad SLV-2G Agena D space rocket.

The launch took place on Sept. 30, 1969, 1:40 p.m. from Space Launch Complex 1W.

For more information about the launch, click the button.

Launch to space Thorad SLV-2G Agena D | Poppy 8A,B,C,D
Thorad SLV-2G Agena D | Poppy 8A,B,C,D

Agency: N/A

Status: Launch Successful

Launch date: Sept. 30, 1969, 1:40 p.m. UTC

Rocket: Thorad SLV-2G Agena D

Launch pad: Space Launch Complex 1W

Location: Vandenberg SFB, CA, USA

...

Latest news about this satellite

There are no fresh news available about this satellite. Check back as we update our databases every day.


Newsletter sign-up

Weekly statistics, charts and insights to help you stay on top of the space industry.